TimeEST,TemperatureF,Dew PointF,Humidity,Sea Level PressureIn,VisibilityMPH,Wind Direction,Wind SpeedMPH,Gust SpeedMPH,PrecipitationIn,Events,Conditions,WindDirDegrees,DateUTC
12:22 AM,30.2,26.6,86,30.08,8.0,SSE,4.6,-,0.03,Rain,Light Freezing Rain,150,2013-02-22 05:22:00
12:32 AM,30.2,26.6,86,30.10,7.0,SSW,3.5,-,0.04,Rain,Light Freezing Rain,200,2013-02-22 05:32:00
12:40 AM,30.2,26.6,86,30.09,7.0,Variable,3.5,-,0.04,Rain,Light Freezing Rain,0,2013-02-22 05:40:00
12:53 AM,30.9,28.0,89,30.08,6.0,Calm,Calm,-,0.04,Rain,Light Freezing Rain,0,2013-02-22 05:53:00
1:53 AM,30.9,28.0,89,30.08,8.0,East,4.6,-,0.00,Rain,Light Freezing Rain,80,2013-02-22 06:53:00
2:53 AM,30.9,28.0,89,30.01,10.0,East,6.9,-,0.00,Rain,Light Freezing Rain,80,2013-02-22 07:53:00
3:53 AM,30.9,28.9,92,29.96,9.0,Variable,3.5,-,0.00,Rain,Light Freezing Rain,0,2013-02-22 08:53:00
4:09 AM,30.2,28.4,93,29.95,2.5,East,4.6,-,0.00,Rain,Light Freezing Rain,100,2013-02-22 09:09:00
4:23 AM,30.2,30.2,100,29.94,2.5,ENE,3.5,-,0.02,Rain,Light Freezing Rain,60,2013-02-22 09:23:00
4:27 AM,30.2,30.2,100,29.94,3.0,NE,3.5,-,0.02,,Overcast,40,2013-02-22 09:27:00
4:53 AM,32.0,30.9,96,29.95,5.0,East,4.6,-,0.02,,Overcast,90,2013-02-22 09:53:00
5:35 AM,32.0,30.2,93,29.93,3.0,Calm,Calm,-,0.00,,Overcast,0,2013-02-22 10:35:00
5:53 AM,33.1,32.0,96,29.94,3.0,Calm,Calm,-,0.00,,Overcast,0,2013-02-22 10:53:00
6:09 AM,33.8,32.0,93,29.92,2.5,Calm,Calm,-,N/A,,Overcast,0,2013-02-22 11:09:00
6:18 AM,32.0,32.0,100,29.92,3.0,Calm,Calm,-,N/A,,Overcast,0,2013-02-22 11:18:00
6:53 AM,32.0,32.0,100,29.94,4.0,Calm,Calm,-,N/A,,Overcast,0,2013-02-22 11:53:00
7:53 AM,33.1,33.1,100,29.94,3.0,South,5.8,-,N/A,,Overcast,190,2013-02-22 12:53:00
8:53 AM,33.1,33.1,100,29.96,5.0,SSW,3.5,-,0.00,,Overcast,200,2013-02-22 13:53:00
9:53 AM,34.0,34.0,100,29.95,5.0,South,6.9,-,0.00,,Overcast,190,2013-02-22 14:53:00
10:53 AM,37.9,37.0,97,29.96,7.0,SSW,8.1,-,N/A,,Overcast,200,2013-02-22 15:53:00
11:53 AM,39.9,39.0,97,29.97,8.0,SW,9.2,-,N/A,,Overcast,220,2013-02-22 16:53:00
12:05 PM,41.0,39.2,93,29.96,9.0,SW,13.8,18.4,N/A,,Overcast,230,2013-02-22 17:05:00
12:35 PM,42.8,39.2,87,29.97,10.0,WSW,11.5,-,N/A,,Overcast,240,2013-02-22 17:35:00
12:53 PM,42.1,37.9,85,29.98,10.0,WSW,11.5,-,N/A,,Overcast,250,2013-02-22 17:53:00
1:53 PM,43.0,39.0,86,29.98,10.0,WSW,10.4,-,N/A,,Overcast,250,2013-02-22 18:53:00
2:53 PM,45.0,39.0,80,29.97,10.0,WSW,10.4,-,N/A,,Overcast,250,2013-02-22 19:53:00
3:53 PM,45.0,39.0,80,29.97,10.0,WSW,6.9,-,N/A,,Overcast,250,2013-02-22 20:53:00
4:53 PM,45.0,37.9,76,29.97,10.0,West,5.8,-,N/A,,Overcast,280,2013-02-22 21:53:00
5:53 PM,44.1,37.9,79,29.98,10.0,WSW,6.9,-,N/A,,Overcast,240,2013-02-22 22:53:00
6:53 PM,41.0,36.0,82,29.99,10.0,Calm,Calm,-,N/A,,Partly Cloudy,0,2013-02-22 23:53:00
7:53 PM,37.9,34.0,86,30.00,10.0,North,3.5,-,N/A,,Clear,360,2013-02-23 00:53:00
8:53 PM,34.0,33.1,96,30.01,10.0,Calm,Calm,-,N/A,,Clear,0,2013-02-23 01:53:00
9:53 PM,32.0,32.0,100,30.02,10.0,Calm,Calm,-,N/A,,Scattered Clouds,0,2013-02-23 02:53:00
10:53 PM,33.1,32.0,96,30.03,10.0,Calm,Calm,-,N/A,,Scattered Clouds,0,2013-02-23 03:53:00
11:41 PM,32.0,32.0,100,30.01,2.5,Calm,Calm,-,N/A,,Scattered Clouds,0,2013-02-23 04:41:00
11:53 PM,30.9,30.9,100,30.02,2.0,Calm,Calm,-,N/A,,Scattered Clouds,0,2013-02-23 04:53:00